STARLINK-1038 (44743 NORAD) Tracking and Keplerian Element Data

This shows tracking and keplerian element data for the satellite.

Feedback or suggestion? Click here.




ElementValue
Catalog44743
NameSTARLINK-1038
Epoch Orbit28852
Epoch Day33.57937336
Epoch Year2025
RAAN189.1887
Inclination53.0387
Eccentricity0.0002911
Argument of Perigee324.2862
Mean Anonmoly127.0014
Mean Motion16.11554632
Decay Rate0.01271454
L11 44743U 19074AG 25033.57937336 .01271454 10810-2 12043-2 0 9997
L22 44743 53.0387 189.1887 0002911 324.2862 127.0014 16.11554632288526



Live tracking and technical data element details for STARLINK-1038 (NORAD 44743). STARLINK-1038 can be tracked NOW for your location showing map with azimuth and elevation plus other details from your city location.







IsCatalogInMostPopularTable: catalog: 44743, numindb: 326
Update: records affected: 1



GetName: 44743 STARLINK-1038

Hit Count: updated at: Thu, 15 May 2025 19:57:43 GMT